Regional Weather Roundup
Issued by NWS

Home | Current Version | Previous Version | Graphics & Text | Print | Product List | Glossary On
Versions: 1 2 3 4 5 6 7 8 9 10 11 12 13 14 15 16 17 18 19 20 21 22 23 24 25 26 27 28 29 30 31 32 33 34 35 36 37 38 39 40 41 42 43 44
120
ASUS44 KJAN 041710
RWRMS

MISSISSIPPI HOURLY WEATHER ROUNDUP
NATIONAL WEATHER SERVICE JACKSON MS
1100 AM CST WED MAR 04 2015

NOTE: "FAIR: INDICATES FEW OR NO CLOUDS BELOW 12,000 FEET WITH NO
SIGNIFICANT WEATHER AND/OR OBSTRUCTIONS TO VISIBILITY.

MSZ001>002-007>008-010>013-018>021-025>028-034>036-041800-
NORTHWEST MISSISSIPPI

CITY           SKY/WX    TMP DP  RH WIND       PRES   REMARKS
CLARKSDALE     CLOUDY    48  48 100 N22G28    29.92R
CLEVELAND      CLOUDY    69  69  98 SW16      29.87F
GREENWOOD      MOSUNNY   75  65  70 SW30      29.89F
GREENVILLE     CLOUDY    72  66  81 S20       29.87F
OLIVE BRANCH   CLOUDY    45  45 100 N17G25    29.94R FOG
OXFORD         CLOUDY    64  63  94 SW8G17    29.89F FOG
TUNICA         CLOUDY    41  41 100 N21G30    29.96R
$$

MSZ003>006-009-014>017-022>024-029>033-037>039-041800-
NORTHEAST MISSISSIPPI

CITY           SKY/WX    TMP DP  RH WIND       PRES   REMARKS
COLUMBUS AFB   NOT AVBL
CORINTH        LGT RAIN  66  64  94 SW5       29.86F
GOLDN TRIANGLE PTSUNNY   73  64  73 S20G26    29.93F
STARKVILLE     CLOUDY    73  64  73 S14       29.93F
TUPELO         CLOUDY    68  65  90 SW10      29.88F
$$

MSZ040-058-041800-
CENTRAL MISSISSIPPI

CITY           SKY/WX    TMP DP  RH WIND       PRES   REMARKS
JACKSON INTL   PTSUNNY   77  66  68 S15       29.95F
JACKSON HAWKNS PTSUNNY   78  64  61 S17G24    29.94F
MERIDIAN KEY   CLOUDY    74  66  76 SW14G21   29.99F
MERIDIAN NAS   PTSUNNY   75  65  70 S9        29.99F
VICKSBURG      PTSUNNY   76  66  71 S14G21    29.93F
$$

MSZ059>079-041800-
SOUTH MISSISSIPPI

CITY           SKY/WX    TMP DP  RH WIND       PRES   REMARKS
BROOKHAVEN     CLOUDY    73  73 100 S15       30.00F
HATTIESBURG    PTSUNNY   77  67  71 S14       30.01S
MCCOMB         CLOUDY    73  67  81 S8        29.99F
NATCHEZ        PTSUNNY   75  66  73 S18       29.96F
PINE BELT      CLOUDY    72  66  83 S6        30.03S
$$

MSZ080>082-041800-
COASTAL MISSISSIPPI

CITY           SKY/WX    TMP DP  RH WIND       PRES   REMARKS
BAY ST LOUIS   PTSUNNY   72  64  78 S9        30.02
BILOXI         NOT AVBL
PASCAGOULA     MOSUNNY   78  69  73 S17G23    30.02F
GULFPORT       PTSUNNY   73  67  81 S16       30.01F
$$



USA.gov is the U.S. government's official web portal to all federal, state and local government web resources and services.